This is the latest recevied weather packets stored in our database for station/object PY5AL-13. If no packets are shown the sender has not sent any weather packets the latest 10 day(s).
| Time | Temp. | Humidity | Pressure | Rain* | Wind** | Luminosity | Snow |
|---|---|---|---|---|---|---|---|
| 1777792470 | 23.33° C | 65% | 1020.3 hPa | - | - | - | - |
| 1777791270 | 23.33° C | 67% | 1020.1 hPa | - | - | - | - |
| 1777788853 | 23.33° C | 66% | 1020.2 hPa | - | - | - | - |
| 1777787653 | 23.89° C | 67% | 1020.3 hPa | - | - | - | - |
| 1777786453 | 23.89° C | 67% | 1020.3 hPa | - | - | - | - |
| 1777785253 | 24.44° C | 67% | 1020.4 hPa | - | - | - | - |
| 1777784053 | 23.89° C | 68% | 1020.6 hPa | - | - | - | - |
| 1777782853 | 23.89° C | 68% | 1020.5 hPa | - | - | - | - |
| 1777781653 | 23.89° C | 69% | 1020.4 hPa | - | - | - | - |
| 1777780453 | 23.89° C | 70% | 1020.6 hPa | - | - | - | - |
| 1777779253 | 23.89° C | 70% | 1020.5 hPa | - | - | - | - |
| 1777778053 | 24.44° C | 71% | 1020.4 hPa | - | - | - | - |
| 1777776853 | 24.44° C | 71% | 1020.6 hPa | - | - | - | - |
| 1777775653 | 25° C | 69% | 1020.6 hPa | - | - | - | - |
| 1777774453 | 24.44° C | 70% | 1020.5 hPa | - | - | - | - |
| 1777773253 | 24.44° C | 71% | 1020.4 hPa | - | - | - | - |
| 1777772054 | 24.44° C | 71% | 1020.3 hPa | - | - | - | - |
| 1777770853 | 24.44° C | 74% | 1020.1 hPa | - | - | - | - |
| 1777769653 | 24.44° C | 74% | 1020.1 hPa | - | - | - | - |
| 1777768453 | 24.44° C | 76% | 1019.9 hPa | - | - | - | - |
| 1777767254 | 25° C | 74% | 1019.4 hPa | - | - | - | - |
| 1777766054 | 25° C | 69% | 1019.1 hPa | - | - | - | - |
| 1777764854 | 25.56° C | 70% | 1019.5 hPa | - | - | - | - |
| 1777763654 | 25.56° C | 70% | 1018.3 hPa | - | - | - | - |
| 1777762454 | 25.56° C | 69% | 1019 hPa | - | - | - | - |
* Rain since midnight (hover to see other rain measurements)
** Current wind speed in m/s (hover to see current wind gust speed)